Location: ???????
(55.3754°N, 39.3545°E)
Time: 08:00:40
(UTC+00:00)

Cosmos 2150 Rocket - Pass Details

Date: 14 April 2026
Orbit: 745 x 803 km, 74.0° (Epoch: 9 May)

Event Time Altitude Azimuth Distance (km) Brightness Sun altitude
Exits shadow 19:28:20 46° 140° (SE) 1,008 4.1 -20.7°
Maximum altitude 19:29:09 51° 109° (ESE) 951 4.1 -20.8°
Drops below altitude 10° 19:34:10 10° 35° (NE) 2,300 6.8 -21.1°
Sets 19:36:36 0° 30° (NNE) 3,239 7.7 -21.3°
